Location: Ar Ranvel
(48.3000°N, 4.8833°W)
Time: 09:05:05
(UTC+00:00)

Cosmos 1513 Rocket - Pass Details

Date: 16 June 2021
Orbit: 940 x 1008 km, 82.9° (Epoch: 03 August)

Event Time Altitude Azimuth Distance (km) Brightness Sun altitude
Rises 23:34:24 0° 350° (N) 3,616 9.3 -17.6°
Reaches altitude 10° 23:36:53 10° 351° (N) 2,668 8.1 -17.7°
Maximum altitude 23:42:59 90° 273° (W) 953 4.4 -17.8°
Enters shadow 23:46:17 29° 173° (S) 1,656 5.1 -17.9°
